Weather in Khayryuzovo

Russia / Kamchatka Krai     56°50′49″N   157°01′18″E
temp.,
°C
wind,
m/s
gust,
m/s
humid.,
%
clouds,
%
prec.,
mm/h
press.,
hPa
HPBL,
m
28 february, sun
sun2800:00−10ene3986100 0.0 1014176
03:00−11ene5118591 0.0 1013202
06:00−11ene6137883 0.0 1011214
09:00−11ene4982100 0.0 1010168
12:00−8ene4977100 0.0 1008316
15:00−4ene5976100 0.0 1006481
18:00−6ne6147799 0.0 1004572
21:00−12nne41289100 0.0 1003275
1 march, mon
mon100:00−12nne51181100 0.0 1001254
03:00−14nne4893100 0.0 999206
06:00−17n4694100 0.0 999119
09:00−17n4894100 0.0 999221
12:00−15n4790100 0.0 1000389
15:00−15n5791100 0.1 1000508
18:00−16n5892100 0.4 1001601
21:00−17n4995100 0.3 1004517
2 march, tue
tue200:00−18nne4790100 0.4 1006399
03:00−19n3489100 0.0 1009113
06:00−20ene1286100 0.0 101120
09:00−20sse1189100 0.0 101520
12:00−16sse2386100 0.0 1016267
15:00−12s2476100 0.0 1017543
18:00−12e3494100 0.1 1018121
21:00−11ssw41394100 1.0 1021665
3 march, wed
wed300:00−13ssw6139574 1.1 1024294
03:00−15s479499 0.1 1024130
06:00−14sse239399 0.1 102234
09:00−14ene4786100 0.0 1018202
12:00−11ene71391100 0.3 1009677
15:00−6ene111774100 2.1 998480
18:00−4ene3586100 2.7 988167
21:00−3e41089100 1.3 979321
4 march, thu
thu400:000ese31283100 2.8 968336
03:00−3sw4229198 0.3 9681202
06:00−14wsw14219194 1.1 9801414
09:00−12wsw142091100 1.1 9891831
12:00−13wsw142089100 1.6 9932301
15:00−12wsw152386100 0.6 9962347
18:00−11wsw122090100 1.0 9972117
21:00−10sw91593100 1.2 9961139